Flag for Israel Weather past 2 weeks in Tel Aviv, Israel

Now
81 °F

Clear.


Feels Like: 85 °F
Forecast: 76 / 87 °F
Wind: 5 mph from Northwest

Location: Ben Gurion International Airport

Current Time: Jul 23, 2014 at 10:04:14 PM

Latest Report: Jul 23, 2014 at 9:20 PM


Visibility: 10 mi

Pressure: 29.83 "Hg

Humidity: 74%

Dew point: 72 °F

Location of Tel AvivLocation

Historic Weather in Tel Aviv — Graph

°F

Tel Aviv temperature yesterday

Maximum temperature yesterday: 88 °F (at 11:20 AM)
Minimum temperature yesterday: 73 °F (at 4:50 AM)
Average temperature yesterday: 81 °F

Past Weeks' High & Low Weather Summary

 TemperatureHumidityPressure
High95 °F (Jul 12, 3:20 PM)83% (Jul 9, 1:20 AM)29.89 "Hg (Jul 9, 1:20 AM)
Low72 °F (Jul 10, 5:20 AM)34% (Jul 12, 3:20 PM)29.74 "Hg (Jul 9, 1:20 AM)
Average81 °F65%29.80 "Hg
* Reported Jul 8 8:20 PM — Jul 23 8:50 PM, Tel Aviv, Weather by CustomWeather, © 2014

Note: Actual official high and low records may vary slightly from our data, if they occured in-between our weather recording intervals... More about our weather records

Advertising

Tel Aviv weather history for previous 24 hours

 ConditionsComfort  
Time TempWeatherWind HumidityBarometerVisibility
8:50 PM
Jul 23
81 °FClear.5 mph74%29.80 "Hg10 mi
8:20 PM81 °FSunny.6 mph74%29.80 "Hg10 mi
7:50 PM82 °FPassing clouds.7 mph74%29.80 "HgN/A
7:20 PM82 °FPassing clouds.8 mph74%29.80 "HgN/A
6:50 PM84 °FPassing clouds.9 mph70%29.80 "HgN/A
6:20 PM86 °FPassing clouds.10 mph66%29.77 "HgN/A
5:50 PM86 °FPassing clouds.12 mph66%29.77 "HgN/A
5:20 PM88 °FPassing clouds.13 mph62%29.77 "HgN/A
4:50 PM88 °FPassing clouds.13 mph59%29.77 "HgN/A
4:20 PM88 °FPassing clouds.14 mph62%29.77 "HgN/A
1:20 PM90 °FPassing clouds.12 mph55%29.77 "HgN/A
12:20 PM90 °FPassing clouds.9 mph55%29.80 "HgN/A
8:50 AM82 °FScattered clouds.6 mph70%29.80 "Hg6 mi
8:20 AM82 °FPassing clouds.6 mph70%29.80 "Hg6 mi
7:50 AM81 °FSunny.7 mph74%29.80 "Hg10 mi
7:20 AM79 °FSunny.5 mph74%29.80 "Hg10 mi
6:50 AM77 °FSunny.3 mph74%29.80 "Hg10 mi
6:20 AM75 °FPassing clouds.6 mph78%29.80 "HgN/A
5:50 AM75 °FPassing clouds.7 mph78%29.80 "HgN/A
5:20 AM75 °FPassing clouds.7 mph78%29.80 "HgN/A
4:50 AM75 °FPassing clouds.6 mph78%29.80 "HgN/A
4:20 AM75 °FPassing clouds.1 mph78%29.80 "HgN/A
3:50 AM75 °FPassing clouds.5 mph78%29.80 "HgN/A
3:20 AM75 °FPassing clouds.5 mph78%29.77 "HgN/A
2:50 AM75 °FPassing clouds.3 mph83%29.77 "HgN/A
Weather by CustomWeather, © 2014

See weather overviewHow to use our weather pages